Weather in Rudnyy

Russia / Belgorod Oblast     50°46′48″N   37°53′12″E
temp.,
°C
wind,
m/s
gust,
m/s
humid.,
%
clouds,
%
prec.,
mm/h
press.,
hPa
HPBL,
m
19 april, mon
mon1900:00+7w4591100 1.2 1017285
03:00+7sse1392100 5.9 1017178
06:00+6ene118913 0.3 101612
09:00+10e337465 0.5 1016558
12:00+13ese1259100 1.6 10151086
15:00+13sse2254100 3.1 10141224
18:00+13n226188 1.0 1014354
21:00+9ene337916 1.3 101455
20 april, tue
tue2000:00+8e238786 0.2 101445
03:00+7e3692100 0.3 1013126
06:00+7e51093100 0.0 1011318
09:00+9e61086100 0.1 1010640
12:00+11ene71083100 0.3 1007906
15:00+9ne91594100 5.1 1002869
18:00+9ene61096100 10.8 999473
21:00+7n4793100 13.9 999360
21 april, wed
wed2100:00+6nw4793100 2.1 1000417
03:00+5w61193100 2.8 1004774
06:00+6w51092100 0.1 1007719
09:00+7wsw6980100 0.1 1010826
12:00+9wsw5768100 0.0 10121133
15:00+12sw576076 0.0 10131472
18:00+11wsw466955 0.5 1014810
21:00+8sw228221 0.7 101613
22 april, thu
thu2200:00+7wsw23865 0.0 101730
03:00+6sw22862 0.0 101820
06:00+6ssw33865 0.0 101942
09:00+11ssw35657 0.0 1020441
12:00+14ssw465463 0.3 10201700
15:00+15ssw555789 1.8 10201335
18:00+13s4768100 1.7 1020432
21:00+10ssw227966 1.7 102131
23 april, fri
fri2300:00+8s22845 0.0 102129
03:00+7s33875 0.0 102034
06:00+7s348969 0.0 102078
09:00+10s358299 0.0 1020215
12:00+15ssw345423 0.0 10191044
15:00+16sw4651100 0.1 10171944
18:00+14ssw476258 0.1 1016471
21:00+11s497442 0.3 1016168